CTV9691 WARR-WADD

Flight info

Callsign CTV9691
Flight time 0h 35m
Altitude 25000
Route MOVMO
Aircraft A320/M-SDE2E3FGHIRWY/LB1

Departure

Time 2026-04-29 14:05
Airport Juanda International Airport (WARR)

Arrival

Time 2026-04-29 14:41
Airport Denpasar I Gusti Ngurah Rai International Airport (WADD)
Time Latitude Longitude Altitude Speed Heading
2026-04-29 13:21 -7.37607 112.79593 -18 ft 0 kts 10°
2026-04-29 13:56 -7.37617 112.79591 11 ft 3 kts
2026-04-29 13:56 -7.37637 112.79588 11 ft 3 kts
2026-04-29 13:56 -7.37657 112.79586 12 ft 3 kts
2026-04-29 13:56 -7.37677 112.79586 10 ft 3 kts 349°
2026-04-29 13:57 -7.37695 112.79592 11 ft 3 kts 309°
2026-04-29 13:57 -7.37700 112.79599 12 ft 0 kts 279°
2026-04-29 13:58 -7.37700 112.79598 12 ft 0 kts 279°
2026-04-29 13:58 -7.37700 112.79597 12 ft 1 kts 278°
2026-04-29 13:59 -7.37692 112.79542 9 ft 12 kts 277°
2026-04-29 13:59 -7.37680 112.79463 9 ft 11 kts 279°
2026-04-29 13:59 -7.37666 112.79378 9 ft 17 kts 279°
2026-04-29 13:59 -7.37646 112.79257 10 ft 18 kts 279°
2026-04-29 14:00 -7.37626 112.79132 9 ft 18 kts 272°
2026-04-29 14:00 -7.37695 112.79093 9 ft 12 kts 192°
2026-04-29 14:00 -7.37799 112.79076 9 ft 16 kts 188°
2026-04-29 14:00 -7.37859 112.79007 9 ft 13 kts 269°
2026-04-29 14:01 -7.37844 112.78911 9 ft 18 kts 279°
2026-04-29 14:01 -7.37821 112.78769 9 ft 22 kts 279°
2026-04-29 14:01 -7.37795 112.78614 9 ft 23 kts 279°
2026-04-29 14:01 -7.37769 112.78447 9 ft 25 kts 279°
2026-04-29 14:02 -7.37739 112.78260 9 ft 27 kts 279°
2026-04-29 14:02 -7.37708 112.78071 9 ft 28 kts 278°
2026-04-29 14:02 -7.37678 112.77884 9 ft 27 kts 279°
2026-04-29 14:02 -7.37648 112.77699 9 ft 25 kts 279°
2026-04-29 14:03 -7.37619 112.77521 9 ft 26 kts 278°
2026-04-29 14:03 -7.37614 112.77412 9 ft 12 kts 249°
2026-04-29 14:03 -7.37674 112.77381 8 ft 9 kts 188°
2026-04-29 14:03 -7.37744 112.77371 9 ft 13 kts 188°
2026-04-29 14:04 -7.37775 112.77411 9 ft 7 kts 90°
2026-04-29 14:04 -7.37793 112.77514 9 ft 41 kts 100°
2026-04-29 14:04 -7.37879 112.78050 10 ft 111 kts 100°
2026-04-29 14:04 -7.38032 112.79002 18 ft 162 kts 98°
2026-04-29 14:05 -7.38222 112.80141 572 ft 167 kts 99°
2026-04-29 14:05 -7.38426 112.81307 1274 ft 169 kts 100°
2026-04-29 14:05 -7.38625 112.82526 1708 ft 187 kts 99°
2026-04-29 14:05 -7.39011 112.83853 1980 ft 211 kts 114°
2026-04-29 14:06 -7.39666 112.85273 2329 ft 236 kts 115°
2026-04-29 14:06 -7.40408 112.86838 2827 ft 256 kts 115°
2026-04-29 14:06 -7.41190 112.88472 3644 ft 261 kts 115°
2026-04-29 14:06 -7.41983 112.90133 4510 ft 265 kts 115°
2026-04-29 14:07 -7.42787 112.91821 5367 ft 269 kts 115°
2026-04-29 14:07 -7.43601 112.93536 6194 ft 273 kts 115°
2026-04-29 14:07 -7.44424 112.95270 6991 ft 276 kts 115°
2026-04-29 14:07 -7.45258 112.97029 7762 ft 280 kts 115°
2026-04-29 14:08 -7.46103 112.98810 8534 ft 284 kts 115°
2026-04-29 14:08 -7.46961 113.00616 9307 ft 287 kts 115°
2026-04-29 14:08 -7.47826 113.02445 10044 ft 291 kts 115°
2026-04-29 14:08 -7.48728 113.04358 10312 ft 313 kts 115°
2026-04-29 14:09 -7.49696 113.06411 10535 ft 334 kts 115°
2026-04-29 14:09 -7.50706 113.08552 11064 ft 341 kts 115°
2026-04-29 14:09 -7.51733 113.10724 11708 ft 345 kts 115°
2026-04-29 14:09 -7.52770 113.12917 12371 ft 349 kts 115°
2026-04-29 14:10 -7.53820 113.15135 13019 ft 352 kts 115°
2026-04-29 14:10 -7.54878 113.17373 13664 ft 356 kts 115°
2026-04-29 14:10 -7.55948 113.19635 14225 ft 359 kts 115°
2026-04-29 14:10 -7.57031 113.21912 14803 ft 362 kts 116°
2026-04-29 14:11 -7.58352 113.24080 15362 ft 365 kts 122°
2026-04-29 14:11 -7.59767 113.26216 15933 ft 367 kts 123°
2026-04-29 14:11 -7.61202 113.28356 16490 ft 370 kts 123°
2026-04-29 14:11 -7.62652 113.30506 17043 ft 372 kts 123°
2026-04-29 14:12 -7.64114 113.32675 17595 ft 375 kts 123°
2026-04-29 14:12 -7.65583 113.34857 18143 ft 378 kts 123°
2026-04-29 14:12 -7.67062 113.37058 18611 ft 381 kts 123°
2026-04-29 14:12 -7.68550 113.39278 19071 ft 383 kts 123°
2026-04-29 14:13 -7.69541 113.40758 19373 ft 385 kts 123°
2026-04-29 14:13 -7.71047 113.43007 19827 ft 389 kts 123°
2026-04-29 14:13 -7.72562 113.45271 20281 ft 392 kts 123°
2026-04-29 14:13 -7.74091 113.47559 20743 ft 395 kts 123°
2026-04-29 14:14 -7.75630 113.49862 21187 ft 398 kts 123°
2026-04-29 14:14 -7.77182 113.52183 21654 ft 401 kts 123°
2026-04-29 14:14 -7.78746 113.54520 22103 ft 404 kts 123°
2026-04-29 14:14 -7.80321 113.56877 22552 ft 407 kts 123°
2026-04-29 14:15 -7.81902 113.59251 22984 ft 410 kts 123°
2026-04-29 14:15 -7.83497 113.61646 23411 ft 413 kts 123°
2026-04-29 14:15 -7.85103 113.64053 23777 ft 415 kts 123°
2026-04-29 14:15 -7.86723 113.66478 24130 ft 418 kts 124°
2026-04-29 14:16 -7.88353 113.68915 24470 ft 420 kts 124°
2026-04-29 14:16 -7.89991 113.71366 24817 ft 423 kts 124°
2026-04-29 14:16 -7.91637 113.73825 24937 ft 423 kts 124°
2026-04-29 14:16 -7.93264 113.76257 24970 ft 415 kts 124°
2026-04-29 14:17 -7.94871 113.78660 24974 ft 412 kts 124°
2026-04-29 14:17 -7.96472 113.81058 24978 ft 414 kts 124°
2026-04-29 14:17 -7.98103 113.83504 24981 ft 427 kts 123°
2026-04-29 14:17 -7.99961 113.85886 24980 ft 438 kts 134°
2026-04-29 14:18 -8.02151 113.88071 24980 ft 448 kts 135°
2026-04-29 14:18 -8.04408 113.90280 24977 ft 456 kts 135°
2026-04-29 14:18 -8.06711 113.92531 24984 ft 464 kts 136°
2026-04-29 14:18 -8.09231 113.94589 24983 ft 471 kts 148°
2026-04-29 14:19 -8.12230 113.95958 24985 ft 477 kts 161°
2026-04-29 14:19 -8.15413 113.96974 24983 ft 482 kts 162°
2026-04-29 14:19 -8.18626 113.97986 24975 ft 486 kts 162°
2026-04-29 14:19 -8.21774 113.99235 24601 ft 490 kts 152°
2026-04-29 14:20 -8.24530 114.01162 23288 ft 490 kts 135°
2026-04-29 14:20 -8.26811 114.03721 21937 ft 490 kts 130°
2026-04-29 14:20 -8.29021 114.06281 21460 ft 474 kts 130°
2026-04-29 14:20 -8.31162 114.08710 21324 ft 452 kts 131°
2026-04-29 14:21 -8.33256 114.11051 20593 ft 447 kts 131°
2026-04-29 14:21 -8.35341 114.13364 19856 ft 444 kts 131°
2026-04-29 14:21 -8.37400 114.15642 19572 ft 430 kts 131°
2026-04-29 14:21 -8.39376 114.17829 19451 ft 414 kts 131°
2026-04-29 14:22 -8.41284 114.19951 19166 ft 404 kts 131°
2026-04-29 14:22 -8.43157 114.22046 18725 ft 400 kts 131°
2026-04-29 14:22 -8.45010 114.24125 18252 ft 397 kts 130°
2026-04-29 14:22 -8.46848 114.26187 17711 ft 394 kts 130°
2026-04-29 14:23 -8.48676 114.28236 17181 ft 391 kts 131°
2026-04-29 14:23 -8.50489 114.30265 16678 ft 388 kts 131°
2026-04-29 14:23 -8.52289 114.32279 16167 ft 385 kts 131°
2026-04-29 14:23 -8.54075 114.34279 15680 ft 382 kts 131°
2026-04-29 14:24 -8.55847 114.36265 15196 ft 379 kts 131°
2026-04-29 14:24 -8.57605 114.38238 14724 ft 376 kts 131°
2026-04-29 14:24 -8.59348 114.40195 14250 ft 373 kts 131°
2026-04-29 14:24 -8.61081 114.42138 13795 ft 371 kts 131°
2026-04-29 14:25 -8.62800 114.44064 13287 ft 368 kts 131°
2026-04-29 14:25 -8.64509 114.45975 12776 ft 365 kts 131°
2026-04-29 14:25 -8.66201 114.47870 12266 ft 362 kts 131°
2026-04-29 14:25 -8.67880 114.49754 11758 ft 359 kts 131°
2026-04-29 14:26 -8.69542 114.51620 11245 ft 356 kts 131°
2026-04-29 14:26 -8.71191 114.53469 10757 ft 353 kts 131°
2026-04-29 14:26 -8.72826 114.55304 10265 ft 350 kts 131°
2026-04-29 14:26 -8.74445 114.57121 9947 ft 342 kts 131°
2026-04-29 14:27 -8.76005 114.58867 9836 ft 328 kts 131°
2026-04-29 14:27 -8.77500 114.60539 9714 ft 314 kts 131°
2026-04-29 14:27 -8.78937 114.62148 9586 ft 302 kts 131°
2026-04-29 14:28 -8.81656 114.65205 9125 ft 287 kts 130°
2026-04-29 14:28 -8.82881 114.66776 8764 ft 283 kts 118°
2026-04-29 14:28 -8.83575 114.68613 8406 ft 279 kts 100°
2026-04-29 14:28 -8.83649 114.70557 8033 ft 277 kts 82°
2026-04-29 14:29 -8.83128 114.72422 7646 ft 276 kts 68°
2026-04-29 14:29 -8.82388 114.74212 7250 ft 275 kts 68°
2026-04-29 14:29 -8.81655 114.75994 6877 ft 274 kts 68°
2026-04-29 14:29 -8.80926 114.77770 6496 ft 273 kts 68°
2026-04-29 14:30 -8.80204 114.79534 6119 ft 271 kts 69°
2026-04-29 14:30 -8.79499 114.81258 5967 ft 259 kts 69°
2026-04-29 14:30 -8.78825 114.82901 5837 ft 247 kts 69°
2026-04-29 14:30 -8.78184 114.84465 5716 ft 235 kts 69°
2026-04-29 14:31 -8.77600 114.85977 5530 ft 227 kts 77°
2026-04-29 14:31 -8.77640 114.87529 5228 ft 222 kts 110°
2026-04-29 14:31 -8.78523 114.88779 4893 ft 222 kts 143°
2026-04-29 14:31 -8.79961 114.89315 4547 ft 226 kts 176°
2026-04-29 14:32 -8.81482 114.88944 4198 ft 230 kts 210°
2026-04-29 14:32 -8.82595 114.87783 3848 ft 234 kts 240°
2026-04-29 14:32 -8.83033 114.86207 3509 ft 236 kts 270°
2026-04-29 14:32 -8.82598 114.84647 3108 ft 234 kts 313°
2026-04-29 14:33 -8.81255 114.83939 2963 ft 218 kts
2026-04-29 14:33 -8.79754 114.84235 2963 ft 223 kts 21°
2026-04-29 14:33 -8.78450 114.85020 2982 ft 219 kts 50°
2026-04-29 14:33 -8.77661 114.86311 2995 ft 217 kts 68°
2026-04-29 14:34 -8.77037 114.87687 2994 ft 210 kts 67°
2026-04-29 14:34 -8.76440 114.88985 2984 ft 200 kts 66°
2026-04-29 14:34 -8.75866 114.90242 2985 ft 195 kts 69°
2026-04-29 14:34 -8.75515 114.91556 2988 ft 193 kts 84°
2026-04-29 14:35 -8.75491 114.92910 2893 ft 193 kts 91°
2026-04-29 14:35 -8.75503 114.94266 2803 ft 193 kts 91°
2026-04-29 14:35 -8.75512 114.95613 2717 ft 191 kts 91°
2026-04-29 14:35 -8.75518 114.96936 2670 ft 182 kts 91°
2026-04-29 14:36 -8.75522 114.98153 2565 ft 169 kts 91°
2026-04-29 14:36 -8.75526 114.99308 2480 ft 156 kts 91°
2026-04-29 14:36 -8.75505 115.00358 2371 ft 149 kts 89°
2026-04-29 14:36 -8.75463 115.01390 2257 ft 146 kts 88°
2026-04-29 14:37 -8.75421 115.02406 2131 ft 144 kts 88°
2026-04-29 14:37 -8.75379 115.03419 2020 ft 145 kts 89°
2026-04-29 14:37 -8.75338 115.04431 1915 ft 144 kts 89°
2026-04-29 14:37 -8.75298 115.05437 1801 ft 143 kts 90°
2026-04-29 14:38 -8.75259 115.06441 1684 ft 143 kts 88°
2026-04-29 14:38 -8.75221 115.07445 1513 ft 143 kts 89°
2026-04-29 14:38 -8.75181 115.08445 1320 ft 142 kts 89°
2026-04-29 14:38 -8.75141 115.09442 1140 ft 141 kts 89°
2026-04-29 14:39 -8.75102 115.10432 966 ft 141 kts 88°
2026-04-29 14:39 -8.75061 115.11436 782 ft 142 kts 89°
2026-04-29 14:39 -8.75022 115.12435 600 ft 141 kts 89°
2026-04-29 14:39 -8.74979 115.13425 404 ft 140 kts 88°
2026-04-29 14:40 -8.74937 115.14418 221 ft 141 kts 90°
2026-04-29 14:40 -8.74898 115.15404 72 ft 140 kts 90°
2026-04-29 14:40 -8.74861 115.16315 28 ft 113 kts 88°
2026-04-29 14:40 -8.74836 115.16932 28 ft 63 kts 87°
2026-04-29 14:41 -8.74823 115.17229 27 ft 17 kts 87°
2026-04-29 14:41 -8.74780 115.17314 28 ft 14 kts 13°
2026-04-29 14:41 -8.74718 115.17315 30 ft 6 kts 359°
2026-04-29 14:41 -8.74692 115.17312 31 ft 2 kts 345°
2026-04-29 14:42 -8.74657 115.17287 31 ft 9 kts 296°
2026-04-29 14:42 -8.74658 115.17227 32 ft 8 kts 267°
2026-04-29 14:42 -8.74660 115.17163 32 ft 9 kts 268°
2026-04-29 14:42 -8.74663 115.17102 32 ft 8 kts 268°
2026-04-29 14:43 -8.74665 115.17042 32 ft 8 kts 267°
2026-04-29 14:43 -8.74669 115.16969 30 ft 10 kts 268°
2026-04-29 14:43 -8.74671 115.16899 32 ft 9 kts 267°
2026-04-29 14:43 -8.74674 115.16836 32 ft 9 kts 266°
2026-04-29 14:44 -8.74677 115.16771 32 ft 13 kts 268°
2026-04-29 14:44 -8.74681 115.16670 32 ft 14 kts 268°
2026-04-29 14:44 -8.74685 115.16575 32 ft 14 kts 268°
2026-04-29 14:44 -8.74689 115.16478 32 ft 14 kts 266°
2026-04-29 14:45 -8.74694 115.16379 33 ft 14 kts 268°
2026-04-29 14:45 -8.74695 115.16301 33 ft 8 kts 275°
2026-04-29 14:45 -8.74655 115.16277 33 ft 7 kts 351°
2026-04-29 14:45 -8.74611 115.16276 33 ft 6 kts 359°
2026-04-29 14:46 -8.74578 115.16275 33 ft 3 kts 358°
2026-04-29 14:46 -8.74573 115.16274 33 ft 0 kts 358°